Wind_Speed
5 6 6 6 7 7 8 9 9 9 9 9 10 11 11 11 12 12 13 14 14 14 15 15 16 17 18 18 19 19 19 20 20 20 20 21 22 23
7 7 6 7 7 8 9 9 9 9 10 10 10 11 11 11 12 13 13 14 14 15 15 16 17 17 19 19 20 20 21 21 21 21 22 22 23 24
7 7 7 7 8 8 9 9 10 10 10 11 11 11 12 13 13 14 15 15 16 16 17 18 19 19 20 21 21 22 22 23 23 23 24 24 25 26
8 8 8 8 9 9 9 10 10 11 11 12 12 13 14 15 15 16 16 16 17 18 19 20 20 21 22 22 23 23 24 24 24 25 25 26 27 27
8 8 8 9 9 10 10 11 11 11 12 13 14 15 16 16 16 17 17 18 19 20 20 21 22 22 23 24 24 25 25 25 26 26 26 27 28 28
9 9 10 10 10 11 11 11 12 12 13 14 15 16 17 17 18 19 19 20 21 21 22 23 23 24 24 25 25 26 26 27 27 28 28 29 30 30
9 10 11 11 11 11 12 13 13 14 15 15 16 17 18 19 20 21 21 22 22 23 24 24 25 25 25 26 27 28 28 29 29 29 30 30 31 31
10 11 12 12 12 13 14 14 14 15 16 17 18 19 20 20 21 22 23 23 24 24 25 26 26 27 27 27 28 29 29 30 30 31 31 32 32 32
12 12 13 13 14 14 15 16 16 17 18 19 19 20 21 21 22 23 24 25 26 27 28 28 28 28 28 29 29 29 30 31 32 32 33 33 33 33
14 14 14 14 15 16 16 17 18 19 19 19 20 21 22 22 24 25 25 26 27 28 28 29 29 29 29 29 29 30 31 31 32 32 33 33 33 33
15 15 15 15 16 16 17 18 19 20 21 21 22 23 23 24 25 26 26 27 28 29 29 30 29 30 30 30 31 31 32 32 32 32 32 33 32 33
16 16 16 17 17 18 19 20 21 22 23 23 24 24 24 25 26 27 27 28 29 29 29 30 31 31 31 31 31 32 32 32 32 32 32 32 33 33
18 18 18 18 19 20 20 21 22 23 24 24 25 25 26 26 27 27 28 28 29 29 30 31 31 31 32 32 32 32 32 32 32 32 33 33 34 35
20 20 21 21 21 21 22 22 23 24 25 25 26 26 27 27 28 28 29 29 30 30 30 31 31 32 32 32 32 32 33 33 34 34 34 35 35 36
22 22 23 23 23 23 23 24 25 25 25 26 27 27 27 28 28 29 30 30 31 31 32 32 32 32 33 33 34 33 34 35 36 36 36 36 37 36
23 24 25 25 25 25 25 26 26 27 27 28 28 28 29 29 29 29 30 30 31 32 33 33 33 33 34 34 35 35 35 36 36 37 37 37 38 37
25 25 25 26 26 26 27 27 28 28 28 29 29 29 30 30 30 31 32 32 33 33 33 34 34 35 36 36 36 36 37 37 37 38 38 37 37 37
26 26 26 27 27 28 28 29 28 28 29 29 30 30 30 31 31 32 32 33 34 34 34 35 35 36 37 37 38 38 38 38 38 38 39 37 37 37
27 27 27 28 28 29 29 29 29 29 30 30 31 31 32 32 32 33 33 34 34 35 36 36 37 37 37 37 37 38 38 38 38 37 38 37 36 36
29 29 29 30 30 30 30 30 30 30 31 32 32 33 33 34 34 35 35 36 36 36 37 37 37 37 37 37 37 37 38 38 38 36 36 36 36 35
30 30 31 31 31 31 31 31 31 32 32 33 33 34 35 35 36 36 37 37 37 38 37 37 37 37 37 37 37 37 37 38 37 36 34 34 34 34
32 32 33 33 33 33 33 32 32 33 33 34 34 35 35 36 37 37 37 37 37 37 37 37 37 38 38 38 37 37 36 37 37 36 35 34 34 34
34 34 34 35 35 35 35 34 34 34 35 35 35 36 36 37 38 38 38 38 37 38 38 37 37 38 38 38 37 37 37 36 36 36 35 35 35 35
Wind_Direction
280 278 279 279 285 288 284 279 278 280 280 280 282 283 283 285 285 289 291 294 294 294 291 291 290 289 288 288 289 289 289 289 290 289 288 287 287 287
283 278 278 280 283 285 284 280 277 278 280 283 286 289 291 290 290 294 296 296 296 296 295 294 293 291 289 289 290 289 288 289 289 289 289 288 288 288
284 280 278 278 281 285 285 283 281 283 286 289 290 291 292 290 290 295 296 296 296 296 296 295 293 293 292 292 291 290 291 290 290 290 290 289 289 288
281 282 281 280 281 285 288 289 289 290 289 289 289 291 292 293 292 294 295 296 297 298 297 296 294 294 294 293 292 292 292 292 292 291 290 290 289 289
279 281 282 283 284 287 288 290 292 292 290 290 291 292 292 293 293 294 295 296 297 297 297 297 296 295 294 293 292 293 292 292 293 293 292 292 291 291
279 280 282 284 285 288 289 290 292 291 291 292 293 293 293 295 295 295 295 296 296 296 296 296 296 295 295 294 294 294 292 292 292 293 293 293 293 292
283 284 284 285 287 288 290 291 292 292 291 292 294 294 295 296 296 295 296 296 297 297 296 296 295 295 294 294 294 293 292 293 293 293 293 294 293 293
286 288 287 287 288 289 289 291 292 294 294 294 294 295 296 296 295 295 296 296 297 297 297 296 296 296 296 296 296 295 295 294 294 294 294 294 293 292
286 288 288 287 288 290 290 292 293 294 296 296 296 296 295 295 295 296 296 296 297 297 297 297 297 297 296 296 296 296 296 295 295 295 294 294 293 292
287 289 289 287 288 290 290 291 293 294 296 296 296 297 297 296 296 297 298 298 298 298 298 297 297 298 298 297 298 298 297 296 297 296 296 295 294 294
287 287 287 288 290 291 291 292 294 297 298 297 297 298 300 299 299 299 299 299 299 299 298 298 298 297 297 298 298 299 299 299 299 298 298 297 296 296
287 287 288 289 290 292 292 294 296 298 298 298 299 299 300 301 300 300 301 300 300 300 299 299 299 298 297 298 299 298 298 298 299 300 300 299 298 298
287 288 290 290 292 293 295 296 297 297 297 298 300 300 301 302 302 302 302 302 303 303 302 301 300 299 299 299 299 299 299 300 300 300 300 299 299 299
287 288 290 291 292 294 296 297 298 299 298 299 300 301 301 301 302 301 301 302 303 303 302 301 301 301 300 300 300 300 300 299 299 300 300 300 299 298
287 288 289 291 292 293 295 297 298 299 299 299 300 300 301 301 300 300 302 303 303 303 303 303 302 301 300 300 301 301 301 300 300 299 300 300 299 298
287 289 289 290 291 292 294 296 298 299 298 298 298 299 299 299 299 300 301 302 302 302 303 303 303 302 301 301 301 301 301 301 300 300 300 300 299 297
287 289 289 289 290 292 294 295 296 298 298 298 298 299 299 299 299 299 300 301 301 301 301 302 302 302 302 302 301 300 300 300 300 299 299 299 299 297
285 286 287 288 289 290 292 293 295 297 298 297 297 298 299 300 300 300 300 300 301 302 302 302 302 302 302 302 301 300 299 300 300 300 299 298 298 297
285 284 286 287 289 290 290 291 292 295 297 297 298 298 299 300 300 300 301 302 302 303 304 304 304 303 302 302 301 300 300 300 300 301 300 299 297 298
285 285 285 287 289 289 289 289 291 294 296 297 298 298 298 299 300 300 301 302 302 303 304 304 304 304 304 303 302 301 300 301 301 300 300 299 299 298
284 284 285 286 288 289 289 289 291 292 294 296 297 297 297 299 300 301 301 301 302 302 303 304 304 304 304 304 303 302 302 302 303 301 300 300 300 300
283 284 284 285 286 287 288 289 291 292 293 295 296 296 297 298 300 301 301 300 301 302 303 303 304 304 304 304 304 303 303 303 303 301 299 300 300 300
283 283 284 284 285 286 286 288 289 290 291 293 294 295 297 298 300 301 301 301 302 302 302 302 303 304 304 303 303 303 303 303 302 301 300 299 299 299
Height
5832 5832 5832 5832 5831 5831 5830 5830 5830 5829 5829 5828 5828 5827 5826 5825 5824 5823 5822 5821 5819 5818 5816 5815 5814 5812 5810 5809 5807 5805 5804 5802 5800 5798 5797 5795 5793 5791
5831 5831 5830 5830 5829 5829 5828 5828 5827 5827 5826 5826 5825 5824 5823 5822 5821 5820 5818 5817 5815 5814 5812 5810 5809 5807 5805 5804 5802 5800 5798 5796 5795 5793 5791 5789 5787 5785
5829 5829 5828 5828 5827 5827 5826 5825 5825 5824 5823 5823 5822 5821 5820 5819 5818 5816 5815 5813 5811 5809 5807 5806 5804 5802 5800 5798 5796 5794 5792 5790 5788 5786 5784 5782 5780 5778
5827 5827 5826 5825 5825 5824 5824 5823 5822 5821 5820 5820 5819 5818 5816 5815 5814 5812 5810 5809 5807 5805 5803 5801 5799 5797 5794 5792 5790 5788 5786 5784 5781 5779 5777 5775 5772 5770
5825 5824 5824 5823 5823 5822 5821 5820 5819 5818 5817 5816 5815 5814 5812 5811 5809 5808 5806 5804 5802 5800 5797 5795 5793 5791 5788 5786 5784 5781 5779 5777 5774 5772 5769 5767 5764 5761
5822 5822 5821 5821 5820 5819 5818 5817 5816 5815 5814 5813 5811 5810 5808 5806 5805 5803 5801 5799 5796 5794 5792 5789 5787 5784 5782 5779 5777 5774 5771 5769 5766 5764 5761 5758 5756 5753
5820 5819 5819 5818 5817 5816 5815 5814 5813 5811 5810 5808 5807 5805 5803 5801 5799 5797 5795 5793 5790 5788 5786 5783 5780 5778 5775 5772 5769 5766 5764 5761 5758 5756 5753 5750 5747 5744
5817 5816 5815 5814 5813 5812 5811 5810 5809 5807 5806 5804 5802 5800 5798 5796 5794 5791 5789 5787 5784 5782 5779 5776 5773 5770 5767 5764 5761 5758 5755 5752 5749 5747 5744 5741 5737 5734
5814 5813 5812 5811 5810 5808 5807 5806 5804 5802 5801 5799 5797 5794 5792 5790 5788 5785 5782 5780 5777 5774 5771 5768 5765 5762 5759 5756 5753 5750 5746 5743 5740 5737 5734 5731 5728 5724
5810 5809 5808 5807 5806 5804 5803 5801 5799 5797 5795 5793 5791 5789 5786 5783 5781 5778 5775 5773 5770 5767 5763 5760 5757 5754 5750 5747 5744 5741 5737 5734 5731 5727 5724 5721 5717 5714
5806 5805 5804 5803 5801 5800 5798 5796 5794 5792 5789 5787 5785 5782 5779 5776 5773 5771 5768 5765 5762 5759 5755 5752 5749 5745 5742 5738 5735 5731 5728 5725 5721 5718 5714 5711 5707 5704
5802 5801 5799 5798 5796 5794 5793 5791 5789 5786 5784 5781 5778 5775 5772 5769 5766 5763 5760 5757 5754 5751 5747 5743 5740 5736 5733 5730 5726 5722 5719 5715 5712 5708 5705 5701 5697 5694
5797 5795 5794 5792 5791 5789 5787 5785 5782 5780 5777 5774 5771 5768 5765 5762 5759 5755 5752 5749 5746 5742 5739 5735 5731 5727 5724 5721 5718 5713 5710 5706 5703 5699 5695 5691 5687 5684
5791 5790 5788 5786 5784 5782 5780 5778 5775 5773 5770 5767 5764 5761 5758 5755 5751 5748 5744 5741 5737 5734 5730 5726 5722 5718 5715 5711 5708 5705 5700 5697 5693 5689 5685 5681 5677 5673
5785 5783 5781 5780 5778 5776 5773 5771 5768 5765 5762 5760 5757 5754 5750 5747 5744 5740 5737 5733 5729 5725 5721 5717 5713 5709 5705 5702 5698 5695 5691 5687 5683 5679 5675 5670 5666 5662
5778 5776 5774 5772 5770 5768 5766 5763 5760 5758 5755 5752 5749 5746 5742 5739 5736 5732 5729 5725 5721 5717 5712 5708 5704 5700 5696 5692 5688 5684 5680 5676 5672 5668 5664 5659 5655 5651
5770 5768 5766 5765 5763 5760 5758 5755 5752 5750 5747 5744 5740 5737 5734 5730 5727 5723 5720 5716 5712 5708 5704 5699 5694 5690 5686 5682 5678 5674 5669 5665 5661 5657 5652 5648 5644 5640
5762 5760 5758 5756 5754 5752 5750 5747 5744 5741 5738 5735 5732 5729 5725 5722 5718 5714 5710 5706 5702 5698 5694 5690 5685 5680 5676 5671 5667 5662 5658 5654 5650 5645 5641 5637 5633 5629
5753 5751 5750 5748 5746 5743 5741 5738 5735 5732 5729 5726 5723 5719 5716 5712 5709 5705 5700 5696 5692 5688 5683 5678 5674 5669 5665 5661 5656 5651 5647 5643 5638 5634 5629 5625 5622 5618
5744 5743 5741 5739 5736 5734 5731 5729 5726 5723 5720 5717 5713 5710 5706 5702 5699 5695 5690 5686 5682 5677 5673 5668 5663 5658 5654 5650 5646 5641 5636 5631 5627 5623 5619 5614 5610 5607
5735 5733 5731 5729 5727 5724 5722 5719 5717 5714 5711 5707 5704 5700 5696 5692 5688 5684 5679 5675 5670 5666 5662 5657 5652 5648 5643 5639 5635 5631 5626 5620 5616 5612 5608 5604 5600 5597
5725 5723 5721 5718 5716 5714 5711 5709 5706 5703 5700 5697 5694 5690 5686 5682 5677 5673 5668 5664 5660 5655 5651 5646 5642 5637 5632 5628 5624 5619 5615 5611 5606 5601 5597 5594 5590 5587
5714 5712 5710 5708 5705 5703 5700 5698 5695 5693 5690 5686 5683 5679 5675 5671 5666 5662 5657 5653 5648 5644 5640 5636 5631 5627 5622 5617 5613 5609 5604 5600 5596 5591 5587 5583 5579 5576